Zurück zum Katalog

BEIDOU 3 G4

AktivNavigationGEO
NORAD 56564·PAYLOAD·🇨🇳 China

Gestartet May 17, 2023 von Xichang Satellite Launch Center

Loading…

TLE

AktuellSource: Space-Track

Epoche: Sep 14, 2026, 23:01 UTC

1 56564U 23066A   26257.95926758 -.00000288  00000-0  00000-0 0  9995
2 56564   0.4401 357.4638 0005247 197.3973 284.4581  1.00270474 12291

Verfolge BEIDOU 3 G4 in Echtzeit mit AllMySat

Download on the App Store